Regional Weather Roundup
Issued by NWS

Home | Current Version | Previous Version | Graphics & Text | Print | Product List | Glossary On
Versions: 1 2 3 4 5 6 7 8 9 10 11 12 13 14 15 16 17 18 19 20 21 22 23 24 25 26 27 28 29 30 31 32 33 34 35 36 37 38 39 40 41 42 43 44 45 46 47 48 49 50
000
ASUS45 KCYS 041010
RWRWY

WYOMING REGIONAL WEATHER ROUNDUP
NATIONAL WEATHER SERVICE CHEYENNE WY
400 AM MDT TUE AUG 04 2015

NOTE:  "FAIR" INDICATES FEW OR NO CLOUDS BELOW 12,000 FEET
WITH NO SIGNIFICANT WEATHER AND/OR OBSTRUCTIONS TO VISIBILITY.

WYZ001-041100-
YELLOWSTONE NATIONAL PARK

CITY           SKY/WX    TMP DP  RH WIND       PRES   REMARKS
LK YELLOWSTONE   N/A     48  47  96 CALM      30.24S
W YELLOWSTONE  NOT AVBL

$$
WYZ002>013-054>058-071-098>099-041100-
NORTHERN WYOMING

CITY           SKY/WX    TMP DP  RH WIND       PRES   REMARKS
JACKSON        NOT AVBL
CODY           MOCLDY    63  52  67 CALM      29.99R
GREYBULL       FAIR      66  50  56 E5        29.92R
WORLAND        FAIR      64  53  67 S10       29.93F
SHERIDAN       FAIR      70  48  45 SE10      29.90S
BUFFALO        FAIR      65  47  52 SW3       29.98F
GILLETTE       FAIR      59  49  69 S3        29.94F
HULETT         FAIR      64  52  63 CALM      29.96S
NEWCASTLE      FAIR      63  52  67 SE7       29.95S

$$
WYZ014>020-022>026-101>103-041100-
CENTRAL WYOMING

CITY           SKY/WX    TMP DP  RH WIND       PRES   REMARKS
BIG PINEY      CLOUDY    54  51  90 W6        30.17R
PINEDALE       CLOUDY    52  52 100 W12       30.16R
DUBOIS         CLOUDY    55  45  67 W18G24    30.12F
LANDER         CLOUDY    58  56  93 CALM      30.03S
RIVERTON       CLOUDY    58  57  97 SW12      30.03S
CASPER         CLOUDY    60  54  80 W6        30.02S
DOUGLAS        FAIR      55  46  71 CALM      30.01R

$$
WYZ021-027>030-104>119-041100-
SOUTHERN WYOMING

CITY           SKY/WX    TMP DP  RH WIND       PRES   REMARKS
EVANSTON       FAIR      48  46  93 SW8       30.23S
KEMMERER       FAIR      50  50 100 W9        30.21S
FORT BRIDGER   SUNNY     52  52 100 W10       30.24S
ROCK SPRINGS   CLOUDY    53  50  89 SW12      30.16R
DIXON          CLOUDY    59  49  71 CALM      30.20S
RAWLINS        CLOUDY    56  50  80 SW17      30.14S
SARATOGA       CLOUDY    57  46  67 SW10G20   30.19R
LARAMIE        CLOUDY    56  49  77 SW12      30.16F
CHEYENNE       CLOUDY    68  45  43 W21G32    30.07S
TORRINGTON     FAIR      62  52  69 CALM      29.94S
PINE BLUFFS    FAIR      54  48  82 SW7       30.04S

$$



USA.gov is the U.S. government's official web portal to all federal, state and local government web resources and services.